Time,TemperatureF,DewpointF,PressureIn,WindDirection,WindDirectionDegrees,WindSpeedMPH,WindSpeedGustMPH,Humidity,HourlyPrecipIn,Conditions,Clouds,dailyrainin,SoftwareType,DateUTC
2013-01-24 00:02:00,34.7,14.0,29.72,North,-999,-999.0,-999.0,42,-99.99,,,-99.99,meteohub,2013-01-24 05:02:00,
2013-01-24 00:03:00,34.7,14.0,29.72,North,-999,-999.0,-999.0,42,-99.99,,,-99.99,meteohub,2013-01-24 05:03:00,
2013-01-24 00:04:00,34.7,14.0,29.69,North,-999,-999.0,-999.0,42,-99.99,,,-99.99,meteohub,2013-01-24 05:04:00,
2013-01-24 00:06:00,34.7,14.0,29.69,North,-999,-999.0,-999.0,42,-99.99,,,-99.99,meteohub,2013-01-24 05:06:00,
2013-01-24 00:11:00,34.5,14.4,29.69,North,-999,-999.0,-999.0,43,-99.99,,,-99.99,meteohub,2013-01-24 05:11:00,
2013-01-24 00:16:00,34.7,14.5,29.69,North,-999,-999.0,-999.0,43,-99.99,,,-99.99,meteohub,2013-01-24 05:16:00,
2013-01-24 00:21:00,34.5,14.9,29.69,North,-999,-999.0,-999.0,44,-99.99,,,-99.99,meteohub,2013-01-24 05:21:00,
2013-01-24 00:27:00,34.9,15.3,29.69,North,-999,-999.0,-999.0,44,-99.99,,,-99.99,meteohub,2013-01-24 05:27:00,
2013-01-24 00:32:00,34.9,15.3,29.69,North,-999,-999.0,-999.0,44,-99.99,,,-99.99,meteohub,2013-01-24 05:32:00,
2013-01-24 00:37:00,34.7,15.6,29.69,North,-999,-999.0,-999.0,45,-99.99,,,-99.99,meteohub,2013-01-24 05:37:00,
2013-01-24 00:42:00,34.9,16.3,29.69,North,-999,-999.0,-999.0,46,-99.99,,,-99.99,meteohub,2013-01-24 05:42:00,
2013-01-24 00:47:00,34.5,16.0,29.69,North,-999,-999.0,-999.0,46,-99.99,,,-99.99,meteohub,2013-01-24 05:47:00,
2013-01-24 00:52:00,34.5,16.3,29.69,North,-999,-999.0,-999.0,47,-99.99,,,-99.99,meteohub,2013-01-24 05:52:00,
2013-01-24 00:57:00,34.5,16.3,29.69,North,-999,-999.0,-999.0,47,-99.99,,,-99.99,meteohub,2013-01-24 05:57:00,
2013-01-24 01:02:00,34.3,16.3,29.69,North,-999,-999.0,-999.0,47,-99.99,,,-99.99,meteohub,2013-01-24 06:02:00,
2013-01-24 01:08:00,34.2,16.2,29.69,North,-999,-999.0,-999.0,47,-99.99,,,-99.99,meteohub,2013-01-24 06:08:00,
2013-01-24 01:13:00,34.0,16.3,29.69,North,-999,-999.0,-999.0,48,-99.99,,,-99.99,meteohub,2013-01-24 06:13:00,
2013-01-24 01:18:00,33.8,16.2,29.69,North,-999,-999.0,-999.0,48,-99.99,,,-99.99,meteohub,2013-01-24 06:18:00,
2013-01-24 01:23:00,33.6,16.5,29.66,North,-999,-999.0,-999.0,49,-99.99,,,-99.99,meteohub,2013-01-24 06:23:00,
2013-01-24 01:28:00,33.6,16.2,29.66,North,-999,-999.0,-999.0,48,-99.99,,,-99.99,meteohub,2013-01-24 06:28:00,
2013-01-24 01:33:00,33.3,16.2,29.66,North,-999,-999.0,-999.0,49,-99.99,,,-99.99,meteohub,2013-01-24 06:33:00,
2013-01-24 01:38:00,33.1,16.5,29.66,North,-999,-999.0,-999.0,50,-99.99,,,-99.99,meteohub,2013-01-24 06:38:00,
2013-01-24 01:43:00,33.1,16.5,29.66,North,-999,-999.0,-999.0,50,-99.99,,,-99.99,meteohub,2013-01-24 06:43:00,
2013-01-24 01:49:00,32.9,16.3,29.66,North,-999,-999.0,-999.0,50,-99.99,,,-99.99,meteohub,2013-01-24 06:49:00,
2013-01-24 01:54:00,32.7,16.2,29.66,North,-999,-999.0,-999.0,50,-99.99,,,-99.99,meteohub,2013-01-24 06:54:00,
2013-01-24 01:59:00,32.7,16.2,29.66,North,-999,-999.0,-999.0,50,-99.99,,,-99.99,meteohub,2013-01-24 06:59:00,
2013-01-24 02:04:00,32.5,16.5,29.66,North,-999,-999.0,-999.0,51,-99.99,,,-99.99,meteohub,2013-01-24 07:04:00,
2013-01-24 02:09:00,32.4,16.3,29.66,North,-999,-999.0,-999.0,51,-99.99,,,-99.99,meteohub,2013-01-24 07:09:00,
2013-01-24 02:15:00,32.2,16.2,29.66,North,-999,-999.0,-999.0,51,-99.99,,,-99.99,meteohub,2013-01-24 07:15:00,
2013-01-24 02:20:00,32.0,16.0,29.63,North,-999,-999.0,-999.0,51,-99.99,,,-99.99,meteohub,2013-01-24 07:20:00,
2013-01-24 02:25:00,31.6,16.0,29.63,North,-999,-999.0,-999.0,52,-99.99,,,-99.99,meteohub,2013-01-24 07:25:00,
2013-01-24 02:30:00,31.3,15.8,29.63,North,-999,-999.0,-999.0,52,-99.99,,,-99.99,meteohub,2013-01-24 07:30:00,
2013-01-24 02:35:00,31.1,15.6,29.63,North,-999,-999.0,-999.0,52,-99.99,,,-99.99,meteohub,2013-01-24 07:35:00,
2013-01-24 02:41:00,30.9,15.8,29.63,North,-999,-999.0,-999.0,53,-99.99,,,-99.99,meteohub,2013-01-24 07:41:00,
2013-01-24 02:46:00,30.7,15.3,29.63,North,-999,-999.0,-999.0,52,-99.99,,,-99.99,meteohub,2013-01-24 07:46:00,
2013-01-24 02:51:00,30.6,15.4,29.63,North,-999,-999.0,-999.0,53,-99.99,,,-99.99,meteohub,2013-01-24 07:51:00,
2013-01-24 02:56:00,30.4,15.3,29.63,North,-999,-999.0,-999.0,53,-99.99,,,-99.99,meteohub,2013-01-24 07:56:00,
2013-01-24 03:01:00,30.2,15.6,29.63,North,-999,-999.0,-999.0,54,-99.99,,,-99.99,meteohub,2013-01-24 08:01:00,
2013-01-24 03:06:00,30.0,15.4,29.63,North,-999,-999.0,-999.0,54,-99.99,,,-99.99,meteohub,2013-01-24 08:06:00,
2013-01-24 03:12:00,29.8,15.3,29.63,North,-999,-999.0,-999.0,54,-99.99,,,-99.99,meteohub,2013-01-24 08:12:00,
2013-01-24 03:17:00,29.7,15.4,29.63,North,-999,-999.0,-999.0,55,-99.99,,,-99.99,meteohub,2013-01-24 08:17:00,
2013-01-24 03:22:00,29.7,15.4,29.63,North,-999,-999.0,-999.0,55,-99.99,,,-99.99,meteohub,2013-01-24 08:22:00,
2013-01-24 03:27:00,29.5,15.8,29.63,North,-999,-999.0,-999.0,56,-99.99,,,-99.99,meteohub,2013-01-24 08:27:00,
2013-01-24 03:32:00,29.5,15.3,29.63,North,-999,-999.0,-999.0,55,-99.99,,,-99.99,meteohub,2013-01-24 08:32:00,
2013-01-24 03:37:00,29.3,15.6,29.63,North,-999,-999.0,-999.0,56,-99.99,,,-99.99,meteohub,2013-01-24 08:37:00,
2013-01-24 03:42:00,29.1,15.4,29.63,North,-999,-999.0,-999.0,56,-99.99,,,-99.99,meteohub,2013-01-24 08:42:00,
2013-01-24 03:47:00,29.1,15.4,29.63,North,-999,-999.0,-999.0,56,-99.99,,,-99.99,meteohub,2013-01-24 08:47:00,
2013-01-24 03:52:00,29.1,15.8,29.63,North,-999,-999.0,-999.0,57,-99.99,,,-99.99,meteohub,2013-01-24 08:52:00,
2013-01-24 03:57:00,29.1,16.2,29.63,North,-999,-999.0,-999.0,58,-99.99,,,-99.99,meteohub,2013-01-24 08:57:00,
2013-01-24 04:02:00,29.1,16.2,29.63,North,-999,-999.0,-999.0,58,-99.99,,,-99.99,meteohub,2013-01-24 09:02:00,
2013-01-24 04:07:00,29.3,16.3,29.60,North,-999,-999.0,-999.0,58,-99.99,,,-99.99,meteohub,2013-01-24 09:07:00,
2013-01-24 04:12:00,29.1,16.5,29.60,North,-999,-999.0,-999.0,59,-99.99,,,-99.99,meteohub,2013-01-24 09:12:00,
2013-01-24 04:17:00,29.3,16.7,29.60,North,-999,-999.0,-999.0,59,-99.99,,,-99.99,meteohub,2013-01-24 09:17:00,
2013-01-24 04:22:00,29.5,17.4,29.60,North,-999,-999.0,-999.0,60,-99.99,,,-99.99,meteohub,2013-01-24 09:22:00,
2013-01-24 04:27:00,29.8,17.2,29.60,North,-999,-999.0,-999.0,59,-99.99,,,-99.99,meteohub,2013-01-24 09:27:00,
2013-01-24 04:32:00,30.2,18.3,29.60,North,-999,-999.0,-999.0,61,-99.99,,,-99.99,meteohub,2013-01-24 09:32:00,
2013-01-24 04:37:00,30.6,18.3,29.60,North,-999,-999.0,-999.0,60,-99.99,,,-99.99,meteohub,2013-01-24 09:37:00,
2013-01-24 04:42:00,30.9,18.7,29.60,North,-999,-999.0,-999.0,60,-99.99,,,-99.99,meteohub,2013-01-24 09:42:00,
2013-01-24 04:47:00,31.3,19.0,29.60,North,-999,-999.0,-999.0,60,-99.99,,,-99.99,meteohub,2013-01-24 09:47:00,
2013-01-24 04:52:00,31.5,18.9,29.63,North,-999,-999.0,-999.0,59,-99.99,,,-99.99,meteohub,2013-01-24 09:52:00,
2013-01-24 04:57:00,31.8,19.6,29.63,North,-999,-999.0,-999.0,60,-99.99,,,-99.99,meteohub,2013-01-24 09:57:00,
2013-01-24 05:02:00,32.2,19.6,29.63,North,-999,-999.0,-999.0,59,-99.99,,,-99.99,meteohub,2013-01-24 10:02:00,
2013-01-24 05:07:00,32.4,19.8,29.63,North,-999,-999.0,-999.0,59,-99.99,,,-99.99,meteohub,2013-01-24 10:07:00,
2013-01-24 05:12:00,32.5,19.8,29.63,North,-999,-999.0,-999.0,59,-99.99,,,-99.99,meteohub,2013-01-24 10:12:00,
2013-01-24 05:17:00,32.7,19.9,29.63,North,-999,-999.0,-999.0,59,-99.99,,,-99.99,meteohub,2013-01-24 10:17:00,
2013-01-24 05:22:00,32.7,19.6,29.63,North,-999,-999.0,-999.0,58,-99.99,,,-99.99,meteohub,2013-01-24 10:22:00,
2013-01-24 05:27:00,32.9,19.8,29.63,North,-999,-999.0,-999.0,58,-99.99,,,-99.99,meteohub,2013-01-24 10:27:00,
2013-01-24 05:32:00,33.1,19.9,29.63,North,-999,-999.0,-999.0,58,-99.99,,,-99.99,meteohub,2013-01-24 10:32:00,
2013-01-24 05:37:00,33.1,19.9,29.63,North,-999,-999.0,-999.0,58,-99.99,,,-99.99,meteohub,2013-01-24 10:37:00,
2013-01-24 05:42:00,33.3,20.1,29.63,North,-999,-999.0,-999.0,58,-99.99,,,-99.99,meteohub,2013-01-24 10:42:00,
2013-01-24 05:47:00,33.3,20.1,29.63,North,-999,-999.0,-999.0,58,-99.99,,,-99.99,meteohub,2013-01-24 10:47:00,
2013-01-24 05:52:00,33.4,20.3,29.63,North,-999,-999.0,-999.0,58,-99.99,,,-99.99,meteohub,2013-01-24 10:52:00,
2013-01-24 05:57:00,33.4,20.3,29.63,North,-999,-999.0,-999.0,58,-99.99,,,-99.99,meteohub,2013-01-24 10:57:00,
2013-01-24 06:02:00,33.4,20.7,29.63,North,-999,-999.0,-999.0,59,-99.99,,,-99.99,meteohub,2013-01-24 11:02:00,
2013-01-24 06:07:00,33.4,20.3,29.66,North,-999,-999.0,-999.0,58,-99.99,,,-99.99,meteohub,2013-01-24 11:07:00,
2013-01-24 06:12:00,33.4,20.3,29.66,North,-999,-999.0,-999.0,58,-99.99,,,-99.99,meteohub,2013-01-24 11:12:00,
2013-01-24 06:17:00,33.4,20.7,29.66,North,-999,-999.0,-999.0,59,-99.99,,,-99.99,meteohub,2013-01-24 11:17:00,
2013-01-24 06:22:00,33.4,20.7,29.69,North,-999,-999.0,-999.0,59,-99.99,,,-99.99,meteohub,2013-01-24 11:22:00,
2013-01-24 06:27:00,33.4,20.7,29.69,North,-999,-999.0,-999.0,59,-99.99,,,-99.99,meteohub,2013-01-24 11:27:00,
2013-01-24 06:32:00,33.4,20.3,29.69,North,-999,-999.0,-999.0,58,-99.99,,,-99.99,meteohub,2013-01-24 11:32:00,
2013-01-24 06:37:00,33.3,20.1,29.69,North,-999,-999.0,-999.0,58,-99.99,,,-99.99,meteohub,2013-01-24 11:37:00,
2013-01-24 06:42:00,33.3,20.1,29.69,North,-999,-999.0,-999.0,58,-99.99,,,-99.99,meteohub,2013-01-24 11:42:00,
2013-01-24 06:47:00,33.3,20.1,29.69,North,-999,-999.0,-999.0,58,-99.99,,,-99.99,meteohub,2013-01-24 11:47:00,
2013-01-24 06:52:00,33.3,19.8,29.69,North,-999,-999.0,-999.0,57,-99.99,,,-99.99,meteohub,2013-01-24 11:52:00,
2013-01-24 06:57:00,33.1,19.6,29.69,North,-999,-999.0,-999.0,57,-99.99,,,-99.99,meteohub,2013-01-24 11:57:00,
2013-01-24 07:02:00,33.1,19.6,29.69,North,-999,-999.0,-999.0,57,-99.99,,,-99.99,meteohub,2013-01-24 12:02:00,
2013-01-24 07:07:00,32.9,19.4,29.72,North,-999,-999.0,-999.0,57,-99.99,,,-99.99,meteohub,2013-01-24 12:07:00,
2013-01-24 07:12:00,32.7,19.6,29.72,North,-999,-999.0,-999.0,58,-99.99,,,-99.99,meteohub,2013-01-24 12:12:00,
2013-01-24 07:17:00,32.5,19.8,29.72,North,-999,-999.0,-999.0,59,-99.99,,,-99.99,meteohub,2013-01-24 12:17:00,
2013-01-24 07:22:00,32.4,19.8,29.75,North,-999,-999.0,-999.0,59,-99.99,,,-99.99,meteohub,2013-01-24 12:22:00,
2013-01-24 07:27:00,32.2,19.0,29.75,North,-999,-999.0,-999.0,58,-99.99,,,-99.99,meteohub,2013-01-24 12:27:00,
2013-01-24 07:32:00,32.2,19.6,29.75,North,-999,-999.0,-999.0,59,-99.99,,,-99.99,meteohub,2013-01-24 12:32:00,
2013-01-24 07:37:00,32.2,19.6,29.78,North,-999,-999.0,-999.0,59,-99.99,,,-99.99,meteohub,2013-01-24 12:37:00,
2013-01-24 07:42:00,32.5,19.8,29.78,North,-999,-999.0,-999.0,59,-99.99,,,-99.99,meteohub,2013-01-24 12:42:00,
2013-01-24 07:47:00,33.1,19.6,29.78,North,-999,-999.0,-999.0,57,-99.99,,,-99.99,meteohub,2013-01-24 12:47:00,
2013-01-24 07:52:00,33.3,19.2,29.78,North,-999,-999.0,-999.0,56,-99.99,,,-99.99,meteohub,2013-01-24 12:52:00,
2013-01-24 07:57:00,33.4,18.7,29.78,North,-999,-999.0,-999.0,54,-99.99,,,-99.99,meteohub,2013-01-24 12:57:00,
2013-01-24 08:02:00,33.6,18.9,29.78,North,-999,-999.0,-999.0,54,-99.99,,,-99.99,meteohub,2013-01-24 13:02:00,
2013-01-24 08:07:00,33.6,18.9,29.81,North,-999,-999.0,-999.0,54,-99.99,,,-99.99,meteohub,2013-01-24 13:07:00,
2013-01-24 08:12:00,33.8,18.1,29.81,North,-999,-999.0,-999.0,52,-99.99,,,-99.99,meteohub,2013-01-24 13:12:00,
2013-01-24 08:17:00,33.8,18.1,29.81,North,-999,-999.0,-999.0,52,-99.99,,,-99.99,meteohub,2013-01-24 13:17:00,
2013-01-24 08:22:00,33.8,17.6,29.81,North,-999,-999.0,-999.0,51,-99.99,,,-99.99,meteohub,2013-01-24 13:22:00,
2013-01-24 08:27:00,34.0,17.4,29.81,North,-999,-999.0,-999.0,50,-99.99,,,-99.99,meteohub,2013-01-24 13:27:00,
2013-01-24 08:32:00,34.0,16.9,29.81,North,-999,-999.0,-999.0,49,-99.99,,,-99.99,meteohub,2013-01-24 13:32:00,
2013-01-24 08:37:00,34.0,16.3,29.81,North,-999,-999.0,-999.0,48,-99.99,,,-99.99,meteohub,2013-01-24 13:37:00,
2013-01-24 08:42:00,34.0,16.3,29.81,North,-999,-999.0,-999.0,48,-99.99,,,-99.99,meteohub,2013-01-24 13:42:00,
2013-01-24 08:47:00,34.2,17.1,29.81,North,-999,-999.0,-999.0,49,-99.99,,,-99.99,meteohub,2013-01-24 13:47:00,
2013-01-24 08:52:00,34.2,17.1,29.84,North,-999,-999.0,-999.0,49,-99.99,,,-99.99,meteohub,2013-01-24 13:52:00,
2013-01-24 08:57:00,34.2,15.6,29.84,North,-999,-999.0,-999.0,46,-99.99,,,-99.99,meteohub,2013-01-24 13:57:00,
2013-01-24 09:02:00,34.3,16.3,29.84,North,-999,-999.0,-999.0,47,-99.99,,,-99.99,meteohub,2013-01-24 14:02:00,
2013-01-24 09:07:00,34.5,16.3,29.84,North,-999,-999.0,-999.0,47,-99.99,,,-99.99,meteohub,2013-01-24 14:07:00,
2013-01-24 09:12:00,34.7,16.5,29.84,North,-999,-999.0,-999.0,47,-99.99,,,-99.99,meteohub,2013-01-24 14:12:00,
2013-01-24 09:17:00,34.9,16.7,29.84,North,-999,-999.0,-999.0,47,-99.99,,,-99.99,meteohub,2013-01-24 14:17:00,
2013-01-24 09:22:00,35.1,16.3,29.84,North,-999,-999.0,-999.0,46,-99.99,,,-99.99,meteohub,2013-01-24 14:22:00,
2013-01-24 09:27:00,35.1,16.0,29.84,North,-999,-999.0,-999.0,45,-99.99,,,-99.99,meteohub,2013-01-24 14:27:00,
2013-01-24 09:32:00,35.2,16.2,29.84,North,-999,-999.0,-999.0,45,-99.99,,,-99.99,meteohub,2013-01-24 14:32:00,
2013-01-24 09:37:00,35.2,15.6,29.87,North,-999,-999.0,-999.0,44,-99.99,,,-99.99,meteohub,2013-01-24 14:37:00,
2013-01-24 09:42:00,35.4,15.8,29.87,North,-999,-999.0,-999.0,44,-99.99,,,-99.99,meteohub,2013-01-24 14:42:00,
2013-01-24 09:47:00,35.6,15.4,29.87,North,-999,-999.0,-999.0,43,-99.99,,,-99.99,meteohub,2013-01-24 14:47:00,
2013-01-24 09:52:00,35.6,14.9,29.87,North,-999,-999.0,-999.0,42,-99.99,,,-99.99,meteohub,2013-01-24 14:52:00,
2013-01-24 09:57:00,35.8,15.1,29.87,North,-999,-999.0,-999.0,42,-99.99,,,-99.99,meteohub,2013-01-24 14:57:00,
2013-01-24 10:02:00,35.8,15.1,29.87,North,-999,-999.0,-999.0,42,-99.99,,,-99.99,meteohub,2013-01-24 15:02:00,
2013-01-24 10:07:00,35.8,15.1,29.87,North,-999,-999.0,-999.0,42,-99.99,,,-99.99,meteohub,2013-01-24 15:07:00,
2013-01-24 10:12:00,36.1,15.3,29.87,North,-999,-999.0,-999.0,42,-99.99,,,-99.99,meteohub,2013-01-24 15:12:00,
2013-01-24 10:17:00,36.5,15.6,29.87,North,-999,-999.0,-999.0,42,-99.99,,,-99.99,meteohub,2013-01-24 15:17:00,
2013-01-24 10:22:00,36.5,15.6,29.90,North,-999,-999.0,-999.0,42,-99.99,,,-99.99,meteohub,2013-01-24 15:22:00,
2013-01-24 10:27:00,36.7,15.3,29.90,North,-999,-999.0,-999.0,41,-99.99,,,-99.99,meteohub,2013-01-24 15:27:00,
2013-01-24 10:32:00,36.7,15.3,29.90,North,-999,-999.0,-999.0,41,-99.99,,,-99.99,meteohub,2013-01-24 15:32:00,
2013-01-24 10:37:00,36.7,15.3,29.90,North,-999,-999.0,-999.0,41,-99.99,,,-99.99,meteohub,2013-01-24 15:37:00,
2013-01-24 10:42:00,37.0,15.6,29.90,North,-999,-999.0,-999.0,41,-99.99,,,-99.99,meteohub,2013-01-24 15:42:00,
2013-01-24 10:47:00,37.8,15.6,29.90,North,-999,-999.0,-999.0,40,-99.99,,,-99.99,meteohub,2013-01-24 15:47:00,
2013-01-24 10:52:00,38.5,16.3,29.90,North,-999,-999.0,-999.0,40,-99.99,,,-99.99,meteohub,2013-01-24 15:52:00,
2013-01-24 10:57:00,38.5,16.3,29.90,North,-999,-999.0,-999.0,40,-99.99,,,-99.99,meteohub,2013-01-24 15:57:00,
2013-01-24 11:02:00,39.2,16.3,29.90,North,-999,-999.0,-999.0,39,-99.99,,,-99.99,meteohub,2013-01-24 16:02:00,
2013-01-24 11:08:00,39.4,16.5,29.90,North,-999,-999.0,-999.0,39,-99.99,,,-99.99,meteohub,2013-01-24 16:08:00,
2013-01-24 11:13:00,38.8,16.0,29.90,North,-999,-999.0,-999.0,39,-99.99,,,-99.99,meteohub,2013-01-24 16:13:00,
2013-01-24 11:18:00,38.8,16.0,29.90,North,-999,-999.0,-999.0,39,-99.99,,,-99.99,meteohub,2013-01-24 16:18:00,
2013-01-24 11:23:00,38.3,14.9,29.90,North,-999,-999.0,-999.0,38,-99.99,,,-99.99,meteohub,2013-01-24 16:23:00,
2013-01-24 11:28:00,38.1,15.4,29.90,North,-999,-999.0,-999.0,39,-99.99,,,-99.99,meteohub,2013-01-24 16:28:00,
2013-01-24 11:33:00,38.1,15.4,29.90,North,-999,-999.0,-999.0,39,-99.99,,,-99.99,meteohub,2013-01-24 16:33:00,
2013-01-24 11:38:00,37.8,15.1,29.93,North,-999,-999.0,-999.0,39,-99.99,,,-99.99,meteohub,2013-01-24 16:38:00,
2013-01-24 11:43:00,37.4,14.7,29.93,North,-999,-999.0,-999.0,39,-99.99,,,-99.99,meteohub,2013-01-24 16:43:00,
2013-01-24 11:48:00,37.6,14.9,29.93,North,-999,-999.0,-999.0,39,-99.99,,,-99.99,meteohub,2013-01-24 16:48:00,
2013-01-24 11:53:00,37.8,15.1,29.93,North,-999,-999.0,-999.0,39,-99.99,,,-99.99,meteohub,2013-01-24 16:53:00,
2013-01-24 11:59:00,37.8,15.1,29.93,North,-999,-999.0,-999.0,39,-99.99,,,-99.99,meteohub,2013-01-24 16:59:00,
2013-01-24 12:04:00,37.8,14.5,29.93,North,-999,-999.0,-999.0,38,-99.99,,,-99.99,meteohub,2013-01-24 17:04:00,
2013-01-24 12:09:00,37.4,13.6,29.93,North,-999,-999.0,-999.0,37,-99.99,,,-99.99,meteohub,2013-01-24 17:09:00,
2013-01-24 12:14:00,37.6,13.8,29.93,North,-999,-999.0,-999.0,37,-99.99,,,-99.99,meteohub,2013-01-24 17:14:00,
2013-01-24 12:19:00,37.6,13.1,29.93,North,-999,-999.0,-999.0,36,-99.99,,,-99.99,meteohub,2013-01-24 17:19:00,
2013-01-24 12:24:00,37.6,13.1,29.93,North,-999,-999.0,-999.0,36,-99.99,,,-99.99,meteohub,2013-01-24 17:24:00,
2013-01-24 12:29:00,37.9,12.7,29.93,North,-999,-999.0,-999.0,35,-99.99,,,-99.99,meteohub,2013-01-24 17:29:00,
2013-01-24 12:35:00,38.7,13.5,29.93,North,-999,-999.0,-999.0,35,-99.99,,,-99.99,meteohub,2013-01-24 17:35:00,
2013-01-24 12:40:00,38.3,12.4,29.93,North,-999,-999.0,-999.0,34,-99.99,,,-99.99,meteohub,2013-01-24 17:40:00,
2013-01-24 12:45:00,38.1,12.4,29.93,North,-999,-999.0,-999.0,34,-99.99,,,-99.99,meteohub,2013-01-24 17:45:00,
2013-01-24 12:50:00,38.5,12.6,29.93,North,-999,-999.0,-999.0,34,-99.99,,,-99.99,meteohub,2013-01-24 17:50:00,
2013-01-24 12:55:00,38.5,12.0,29.93,North,-999,-999.0,-999.0,33,-99.99,,,-99.99,meteohub,2013-01-24 17:55:00,
2013-01-24 13:00:00,38.1,11.7,29.93,North,-999,-999.0,-999.0,33,-99.99,,,-99.99,meteohub,2013-01-24 18:00:00,
2013-01-24 13:05:00,38.3,11.1,29.96,North,-999,-999.0,-999.0,32,-99.99,,,-99.99,meteohub,2013-01-24 18:05:00,
2013-01-24 13:10:00,37.9,10.8,29.96,North,-999,-999.0,-999.0,32,-99.99,,,-99.99,meteohub,2013-01-24 18:10:00,
2013-01-24 13:16:00,38.5,11.3,29.96,North,-999,-999.0,-999.0,32,-99.99,,,-99.99,meteohub,2013-01-24 18:16:00,
2013-01-24 13:21:00,38.1,10.2,29.96,North,-999,-999.0,-999.0,31,-99.99,,,-99.99,meteohub,2013-01-24 18:21:00,
2013-01-24 13:26:00,37.9,10.0,29.96,North,-999,-999.0,-999.0,31,-99.99,,,-99.99,meteohub,2013-01-24 18:26:00,
2013-01-24 13:31:00,37.2,9.5,29.96,North,-999,-999.0,-999.0,31,-99.99,,,-99.99,meteohub,2013-01-24 18:31:00,
2013-01-24 13:36:00,37.4,9.7,29.96,North,-999,-999.0,-999.0,31,-99.99,,,-99.99,meteohub,2013-01-24 18:36:00,
2013-01-24 13:41:00,37.8,9.9,29.96,North,-999,-999.0,-999.0,31,-99.99,,,-99.99,meteohub,2013-01-24 18:41:00,
2013-01-24 13:46:00,37.8,9.1,29.96,North,-999,-999.0,-999.0,30,-99.99,,,-99.99,meteohub,2013-01-24 18:46:00,
2013-01-24 13:51:00,37.6,9.7,29.96,North,-999,-999.0,-999.0,31,-99.99,,,-99.99,meteohub,2013-01-24 18:51:00,
2013-01-24 13:57:00,37.9,10.0,29.96,North,-999,-999.0,-999.0,31,-99.99,,,-99.99,meteohub,2013-01-24 18:57:00,
2013-01-24 14:02:00,37.4,9.0,29.96,North,-999,-999.0,-999.0,30,-99.99,,,-99.99,meteohub,2013-01-24 19:02:00,
2013-01-24 14:07:00,36.9,9.1,29.96,North,-999,-999.0,-999.0,31,-99.99,,,-99.99,meteohub,2013-01-24 19:07:00,
2013-01-24 14:12:00,37.2,9.5,29.96,North,-999,-999.0,-999.0,31,-99.99,,,-99.99,meteohub,2013-01-24 19:12:00,
2013-01-24 14:17:00,36.9,9.1,29.96,North,-999,-999.0,-999.0,31,-99.99,,,-99.99,meteohub,2013-01-24 19:17:00,
2013-01-24 14:22:00,36.9,9.1,29.96,North,-999,-999.0,-999.0,31,-99.99,,,-99.99,meteohub,2013-01-24 19:22:00,
2013-01-24 14:27:00,37.2,9.5,29.96,North,-999,-999.0,-999.0,31,-99.99,,,-99.99,meteohub,2013-01-24 19:27:00,
2013-01-24 14:32:00,36.7,8.2,29.96,North,-999,-999.0,-999.0,30,-99.99,,,-99.99,meteohub,2013-01-24 19:32:00,
2013-01-24 14:37:00,36.5,8.1,29.99,North,-999,-999.0,-999.0,30,-99.99,,,-99.99,meteohub,2013-01-24 19:37:00,
2013-01-24 14:42:00,36.5,8.8,29.99,North,-999,-999.0,-999.0,31,-99.99,,,-99.99,meteohub,2013-01-24 19:42:00,
2013-01-24 14:47:00,36.3,7.9,29.99,North,-999,-999.0,-999.0,30,-99.99,,,-99.99,meteohub,2013-01-24 19:47:00,
2013-01-24 14:52:00,36.5,8.8,29.99,North,-999,-999.0,-999.0,31,-99.99,,,-99.99,meteohub,2013-01-24 19:52:00,
2013-01-24 14:57:00,36.5,8.8,29.99,North,-999,-999.0,-999.0,31,-99.99,,,-99.99,meteohub,2013-01-24 19:57:00,
2013-01-24 15:02:00,36.3,8.6,29.99,North,-999,-999.0,-999.0,31,-99.99,,,-99.99,meteohub,2013-01-24 20:02:00,
2013-01-24 15:07:00,36.1,8.4,29.99,North,-999,-999.0,-999.0,31,-99.99,,,-99.99,meteohub,2013-01-24 20:07:00,
2013-01-24 15:12:00,36.1,8.4,29.99,North,-999,-999.0,-999.0,31,-99.99,,,-99.99,meteohub,2013-01-24 20:12:00,
2013-01-24 15:17:00,36.0,8.4,29.99,North,-999,-999.0,-999.0,31,-99.99,,,-99.99,meteohub,2013-01-24 20:17:00,
2013-01-24 15:22:00,36.0,8.4,29.99,North,-999,-999.0,-999.0,31,-99.99,,,-99.99,meteohub,2013-01-24 20:22:00,
2013-01-24 15:27:00,35.8,8.2,29.99,North,-999,-999.0,-999.0,31,-99.99,,,-99.99,meteohub,2013-01-24 20:27:00,
2013-01-24 15:32:00,35.6,8.1,29.99,North,-999,-999.0,-999.0,31,-99.99,,,-99.99,meteohub,2013-01-24 20:32:00,
2013-01-24 15:37:00,35.2,7.7,30.01,North,-999,-999.0,-999.0,31,-99.99,,,-99.99,meteohub,2013-01-24 20:37:00,
2013-01-24 15:42:00,35.1,7.5,30.01,North,-999,-999.0,-999.0,31,-99.99,,,-99.99,meteohub,2013-01-24 20:42:00,
2013-01-24 15:47:00,35.1,7.5,30.01,North,-999,-999.0,-999.0,31,-99.99,,,-99.99,meteohub,2013-01-24 20:47:00,
2013-01-24 15:52:00,34.9,7.3,30.01,North,-999,-999.0,-999.0,31,-99.99,,,-99.99,meteohub,2013-01-24 20:52:00,
2013-01-24 15:57:00,34.5,7.2,30.01,North,-999,-999.0,-999.0,31,-99.99,,,-99.99,meteohub,2013-01-24 20:57:00,
2013-01-24 16:02:00,34.5,7.2,30.01,North,-999,-999.0,-999.0,31,-99.99,,,-99.99,meteohub,2013-01-24 21:02:00,
2013-01-24 16:07:00,34.3,7.0,30.01,North,-999,-999.0,-999.0,31,-99.99,,,-99.99,meteohub,2013-01-24 21:07:00,
2013-01-24 16:12:00,34.3,7.0,30.01,North,-999,-999.0,-999.0,31,-99.99,,,-99.99,meteohub,2013-01-24 21:12:00,
2013-01-24 16:17:00,34.2,7.5,30.01,North,-999,-999.0,-999.0,32,-99.99,,,-99.99,meteohub,2013-01-24 21:17:00,
2013-01-24 16:22:00,33.8,7.9,30.01,North,-999,-999.0,-999.0,33,-99.99,,,-99.99,meteohub,2013-01-24 21:22:00,
2013-01-24 16:27:00,33.8,7.9,30.01,North,-999,-999.0,-999.0,33,-99.99,,,-99.99,meteohub,2013-01-24 21:27:00,
2013-01-24 16:32:00,33.8,7.9,30.01,North,-999,-999.0,-999.0,33,-99.99,,,-99.99,meteohub,2013-01-24 21:32:00,
2013-01-24 16:37:00,33.6,8.2,30.04,North,-999,-999.0,-999.0,34,-99.99,,,-99.99,meteohub,2013-01-24 21:37:00,
2013-01-24 16:42:00,33.4,7.5,30.04,North,-999,-999.0,-999.0,33,-99.99,,,-99.99,meteohub,2013-01-24 21:42:00,
2013-01-24 16:47:00,33.3,8.1,30.04,North,-999,-999.0,-999.0,34,-99.99,,,-99.99,meteohub,2013-01-24 21:47:00,
2013-01-24 16:52:00,33.3,8.1,30.01,North,-999,-999.0,-999.0,34,-99.99,,,-99.99,meteohub,2013-01-24 21:52:00,
2013-01-24 16:57:00,33.1,7.9,30.01,North,-999,-999.0,-999.0,34,-99.99,,,-99.99,meteohub,2013-01-24 21:57:00,
2013-01-24 17:03:00,33.1,7.2,30.01,North,-999,-999.0,-999.0,33,-99.99,,,-99.99,meteohub,2013-01-24 22:03:00,
2013-01-24 17:08:00,32.7,6.8,30.04,North,-999,-999.0,-999.0,33,-99.99,,,-99.99,meteohub,2013-01-24 22:08:00,
2013-01-24 17:13:00,32.5,6.1,30.04,North,-999,-999.0,-999.0,32,-99.99,,,-99.99,meteohub,2013-01-24 22:13:00,
2013-01-24 17:18:00,32.5,6.6,30.04,North,-999,-999.0,-999.0,33,-99.99,,,-99.99,meteohub,2013-01-24 22:18:00,
2013-01-24 17:23:00,32.4,6.6,30.04,North,-999,-999.0,-999.0,33,-99.99,,,-99.99,meteohub,2013-01-24 22:23:00,
2013-01-24 17:28:00,32.2,5.7,30.04,North,-999,-999.0,-999.0,32,-99.99,,,-99.99,meteohub,2013-01-24 22:28:00,
2013-01-24 17:33:00,32.0,5.5,30.04,North,-999,-999.0,-999.0,32,-99.99,,,-99.99,meteohub,2013-01-24 22:33:00,
2013-01-24 17:39:00,32.0,5.5,30.07,North,-999,-999.0,-999.0,32,-99.99,,,-99.99,meteohub,2013-01-24 22:39:00,
2013-01-24 17:44:00,31.6,5.9,30.07,North,-999,-999.0,-999.0,33,-99.99,,,-99.99,meteohub,2013-01-24 22:44:00,
2013-01-24 17:49:00,31.5,5.7,30.07,North,-999,-999.0,-999.0,33,-99.99,,,-99.99,meteohub,2013-01-24 22:49:00,
2013-01-24 17:54:00,31.3,5.5,30.07,North,-999,-999.0,-999.0,33,-99.99,,,-99.99,meteohub,2013-01-24 22:54:00,
2013-01-24 17:59:00,31.1,5.4,30.07,North,-999,-999.0,-999.0,33,-99.99,,,-99.99,meteohub,2013-01-24 22:59:00,
2013-01-24 18:04:00,30.9,5.2,30.07,North,-999,-999.0,-999.0,33,-99.99,,,-99.99,meteohub,2013-01-24 23:04:00,
2013-01-24 18:09:00,30.9,4.6,30.07,North,-999,-999.0,-999.0,32,-99.99,,,-99.99,meteohub,2013-01-24 23:09:00,
2013-01-24 18:14:00,30.7,4.5,30.07,North,-999,-999.0,-999.0,32,-99.99,,,-99.99,meteohub,2013-01-24 23:14:00,
2013-01-24 18:19:00,30.6,5.0,30.07,North,-999,-999.0,-999.0,33,-99.99,,,-99.99,meteohub,2013-01-24 23:19:00,
2013-01-24 18:25:00,30.4,4.1,30.07,North,-999,-999.0,-999.0,32,-99.99,,,-99.99,meteohub,2013-01-24 23:25:00,
2013-01-24 18:30:00,30.4,4.8,30.07,North,-999,-999.0,-999.0,33,-99.99,,,-99.99,meteohub,2013-01-24 23:30:00,
2013-01-24 18:35:00,30.2,4.6,30.10,North,-999,-999.0,-999.0,33,-99.99,,,-99.99,meteohub,2013-01-24 23:35:00,
2013-01-24 18:40:00,30.2,4.6,30.10,North,-999,-999.0,-999.0,33,-99.99,,,-99.99,meteohub,2013-01-24 23:40:00,
2013-01-24 18:45:00,30.2,4.6,30.10,North,-999,-999.0,-999.0,33,-99.99,,,-99.99,meteohub,2013-01-24 23:45:00,
2013-01-24 18:50:00,30.0,4.5,30.10,North,-999,-999.0,-999.0,33,-99.99,,,-99.99,meteohub,2013-01-24 23:50:00,
2013-01-24 18:55:00,30.0,4.5,30.10,North,-999,-999.0,-999.0,33,-99.99,,,-99.99,meteohub,2013-01-24 23:55:00,
2013-01-24 19:00:00,29.8,4.3,30.10,North,-999,-999.0,-999.0,33,-99.99,,,-99.99,meteohub,2013-01-25 00:00:00,
2013-01-24 19:05:00,29.7,4.1,30.13,North,-999,-999.0,-999.0,33,-99.99,,,-99.99,meteohub,2013-01-25 00:05:00,
2013-01-24 19:11:00,29.7,4.1,30.13,North,-999,-999.0,-999.0,33,-99.99,,,-99.99,meteohub,2013-01-25 00:11:00,
2013-01-24 19:16:00,29.5,3.9,30.13,North,-999,-999.0,-999.0,33,-99.99,,,-99.99,meteohub,2013-01-25 00:16:00,
2013-01-24 19:21:00,29.5,3.9,30.13,North,-999,-999.0,-999.0,33,-99.99,,,-99.99,meteohub,2013-01-25 00:21:00,
2013-01-24 19:26:00,29.5,3.9,30.13,North,-999,-999.0,-999.0,33,-99.99,,,-99.99,meteohub,2013-01-25 00:26:00,
2013-01-24 19:31:00,29.3,3.7,30.13,North,-999,-999.0,-999.0,33,-99.99,,,-99.99,meteohub,2013-01-25 00:31:00,
2013-01-24 19:36:00,29.1,3.6,30.13,North,-999,-999.0,-999.0,33,-99.99,,,-99.99,meteohub,2013-01-25 00:36:00,
2013-01-24 19:41:00,28.9,3.6,30.13,North,-999,-999.0,-999.0,33,-99.99,,,-99.99,meteohub,2013-01-25 00:41:00,
2013-01-24 19:46:00,28.8,3.4,30.13,North,-999,-999.0,-999.0,33,-99.99,,,-99.99,meteohub,2013-01-25 00:46:00,
2013-01-24 19:51:00,28.6,3.7,30.13,North,-999,-999.0,-999.0,34,-99.99,,,-99.99,meteohub,2013-01-25 00:51:00,
2013-01-24 19:57:00,28.6,3.7,30.13,North,-999,-999.0,-999.0,34,-99.99,,,-99.99,meteohub,2013-01-25 00:57:00,
2013-01-24 20:02:00,28.6,3.7,30.13,North,-999,-999.0,-999.0,34,-99.99,,,-99.99,meteohub,2013-01-25 01:02:00,
2013-01-24 20:07:00,28.4,3.6,30.13,North,-999,-999.0,-999.0,34,-99.99,,,-99.99,meteohub,2013-01-25 01:07:00,
2013-01-24 20:12:00,28.2,3.6,30.13,North,-999,-999.0,-999.0,34,-99.99,,,-99.99,meteohub,2013-01-25 01:12:00,
2013-01-24 20:17:00,28.2,3.6,30.13,North,-999,-999.0,-999.0,34,-99.99,,,-99.99,meteohub,2013-01-25 01:17:00,
2013-01-24 20:22:00,28.0,3.4,30.16,North,-999,-999.0,-999.0,34,-99.99,,,-99.99,meteohub,2013-01-25 01:22:00,
2013-01-24 20:27:00,28.0,3.9,30.16,North,-999,-999.0,-999.0,35,-99.99,,,-99.99,meteohub,2013-01-25 01:27:00,
2013-01-24 20:32:00,27.9,3.7,30.16,North,-999,-999.0,-999.0,35,-99.99,,,-99.99,meteohub,2013-01-25 01:32:00,
2013-01-24 20:37:00,27.9,3.7,30.16,North,-999,-999.0,-999.0,35,-99.99,,,-99.99,meteohub,2013-01-25 01:37:00,
2013-01-24 20:42:00,27.7,4.3,30.16,North,-999,-999.0,-999.0,36,-99.99,,,-99.99,meteohub,2013-01-25 01:42:00,
2013-01-24 20:47:00,27.3,4.5,30.16,North,-999,-999.0,-999.0,37,-99.99,,,-99.99,meteohub,2013-01-25 01:47:00,
2013-01-24 20:52:00,27.3,4.5,30.13,North,-999,-999.0,-999.0,37,-99.99,,,-99.99,meteohub,2013-01-25 01:52:00,
2013-01-24 20:57:00,27.1,5.0,30.13,North,-999,-999.0,-999.0,38,-99.99,,,-99.99,meteohub,2013-01-25 01:57:00,
2013-01-24 21:02:00,27.0,4.8,30.13,North,-999,-999.0,-999.0,38,-99.99,,,-99.99,meteohub,2013-01-25 02:02:00,
2013-01-24 21:07:00,27.0,4.8,30.16,North,-999,-999.0,-999.0,38,-99.99,,,-99.99,meteohub,2013-01-25 02:07:00,
2013-01-24 21:12:00,27.0,5.9,30.16,North,-999,-999.0,-999.0,40,-99.99,,,-99.99,meteohub,2013-01-25 02:12:00,
2013-01-24 21:17:00,26.8,5.7,30.16,North,-999,-999.0,-999.0,40,-99.99,,,-99.99,meteohub,2013-01-25 02:17:00,
2013-01-24 21:22:00,26.6,6.6,30.16,North,-999,-999.0,-999.0,42,-99.99,,,-99.99,meteohub,2013-01-25 02:22:00,
2013-01-24 21:27:00,26.6,6.1,30.16,North,-999,-999.0,-999.0,41,-99.99,,,-99.99,meteohub,2013-01-25 02:27:00,
2013-01-24 21:32:00,26.6,6.1,30.16,North,-999,-999.0,-999.0,41,-99.99,,,-99.99,meteohub,2013-01-25 02:32:00,
2013-01-24 21:37:00,26.6,6.6,30.13,North,-999,-999.0,-999.0,42,-99.99,,,-99.99,meteohub,2013-01-25 02:37:00,
2013-01-24 21:42:00,26.4,5.9,30.13,North,-999,-999.0,-999.0,41,-99.99,,,-99.99,meteohub,2013-01-25 02:42:00,
2013-01-24 21:47:00,26.4,5.9,30.13,North,-999,-999.0,-999.0,41,-99.99,,,-99.99,meteohub,2013-01-25 02:47:00,
2013-01-24 21:52:00,26.4,6.4,30.13,North,-999,-999.0,-999.0,42,-99.99,,,-99.99,meteohub,2013-01-25 02:52:00,
2013-01-24 21:57:00,26.2,6.3,30.13,North,-999,-999.0,-999.0,42,-99.99,,,-99.99,meteohub,2013-01-25 02:57:00,
2013-01-24 22:02:00,26.1,5.5,30.13,North,-999,-999.0,-999.0,41,-99.99,,,-99.99,meteohub,2013-01-25 03:02:00,
2013-01-24 22:07:00,26.1,5.5,30.13,North,-999,-999.0,-999.0,41,-99.99,,,-99.99,meteohub,2013-01-25 03:07:00,
2013-01-24 22:12:00,25.9,5.5,30.13,North,-999,-999.0,-999.0,41,-99.99,,,-99.99,meteohub,2013-01-25 03:12:00,
2013-01-24 22:17:00,25.9,5.9,30.13,North,-999,-999.0,-999.0,42,-99.99,,,-99.99,meteohub,2013-01-25 03:17:00,
2013-01-24 22:22:00,25.9,5.9,30.13,North,-999,-999.0,-999.0,42,-99.99,,,-99.99,meteohub,2013-01-25 03:22:00,
2013-01-24 22:27:00,25.7,5.9,30.13,North,-999,-999.0,-999.0,42,-99.99,,,-99.99,meteohub,2013-01-25 03:27:00,
2013-01-24 22:32:00,25.7,5.9,30.13,North,-999,-999.0,-999.0,42,-99.99,,,-99.99,meteohub,2013-01-25 03:32:00,
2013-01-24 22:37:00,25.5,5.7,30.13,North,-999,-999.0,-999.0,42,-99.99,,,-99.99,meteohub,2013-01-25 03:37:00,
2013-01-24 22:42:00,25.3,5.5,30.13,North,-999,-999.0,-999.0,42,-99.99,,,-99.99,meteohub,2013-01-25 03:42:00,
2013-01-24 22:47:00,25.3,5.5,30.13,North,-999,-999.0,-999.0,42,-99.99,,,-99.99,meteohub,2013-01-25 03:47:00,
2013-01-24 22:52:00,25.2,5.4,30.13,North,-999,-999.0,-999.0,42,-99.99,,,-99.99,meteohub,2013-01-25 03:52:00,
2013-01-24 22:57:00,25.2,5.4,30.13,North,-999,-999.0,-999.0,42,-99.99,,,-99.99,meteohub,2013-01-25 03:57:00,
2013-01-24 23:02:00,25.2,5.4,30.13,North,-999,-999.0,-999.0,42,-99.99,,,-99.99,meteohub,2013-01-25 04:02:00,
2013-01-24 23:07:00,25.2,5.4,30.16,North,-999,-999.0,-999.0,42,-99.99,,,-99.99,meteohub,2013-01-25 04:07:00,
2013-01-24 23:12:00,25.0,5.2,30.16,North,-999,-999.0,-999.0,42,-99.99,,,-99.99,meteohub,2013-01-25 04:12:00,
2013-01-24 23:17:00,25.0,5.2,30.16,North,-999,-999.0,-999.0,42,-99.99,,,-99.99,meteohub,2013-01-25 04:17:00,
2013-01-24 23:22:00,25.0,4.6,30.16,North,-999,-999.0,-999.0,41,-99.99,,,-99.99,meteohub,2013-01-25 04:22:00,
2013-01-24 23:27:00,25.0,4.6,30.16,North,-999,-999.0,-999.0,41,-99.99,,,-99.99,meteohub,2013-01-25 04:27:00,
2013-01-24 23:32:00,25.0,4.6,30.16,North,-999,-999.0,-999.0,41,-99.99,,,-99.99,meteohub,2013-01-25 04:32:00,
2013-01-24 23:37:00,25.0,4.6,30.13,North,-999,-999.0,-999.0,41,-99.99,,,-99.99,meteohub,2013-01-25 04:37:00,
2013-01-24 23:42:00,25.0,4.6,30.13,North,-999,-999.0,-999.0,41,-99.99,,,-99.99,meteohub,2013-01-25 04:42:00,
2013-01-24 23:47:00,25.0,4.6,30.13,North,-999,-999.0,-999.0,41,-99.99,,,-99.99,meteohub,2013-01-25 04:47:00,
2013-01-24 23:52:00,25.0,4.1,30.13,North,-999,-999.0,-999.0,40,-99.99,,,-99.99,meteohub,2013-01-25 04:52:00,
2013-01-24 23:57:00,25.0,4.1,30.13,North,-999,-999.0,-999.0,40,-99.99,,,-99.99,meteohub,2013-01-25 04:57:00,